KOREASAT 7

Last updated on Oct. 31, 2020, 5:53 a.m. UTC

1 42691U 17023A   20304.84391243 -.00000357  00000-0  00000-0 0  9994
2 42691   0.0196  94.1689 0001802  92.0025 273.1675  1.00273627 12761
UTC
Height (km)
Latitude
Longitude
Inclination
Orbital Period
UTC large
Height (km)
Speed (km/s)
/
Latitude / Longitude
Inclination (degrees)
Orbital Period (minutes)
Azimuth
Elevation
Range (km)
Doppler Factor
iOS Compass Heading
iOS Angle

Next 30 passes for location: Hong Kong

Rise time Rise Azimuth (degrees) Set time Set Azimuth (degrees) Duration Max altitude (degrees)

No matching passes for this satellites